Weather in Svobodny

Russia / Saratov Oblast     52°19′51″N   46°22′02″E
temp.,
°C
wind,
m/s
gust,
m/s
humid.,
%
clouds,
%
prec.,
mm/h
press.,
hPa
HPBL,
m
13 may, thu
thu1301:00+12ne11915 0.0 102110
04:00+12ne34915 0.0 102056
07:00+13e61191100 0.5 1019327
10:00+16ese7108377 1.9 1019528
13:00+22sse7106074 0.2 10181648
16:00+22se6965100 0.6 10171332
19:00+20se1176100 0.4 101715
22:00+18sw11775 1.1 101811
14 may, fri
fri1401:00+16sse1183100 0.0 101911
04:00+15ese1184100 0.0 102011
07:00+17e2584100 0.0 1020133
10:00+21se5864100 0.0 1019455
13:00+24sse69460 0.0 1019922
16:00+26sse610465 0.0 10191357
19:00+23sse495872 0.0 1018251
22:00+19se41060100 0.0 1019182
15 may, sat
sat1501:00+16se366024 0.0 101994
04:00+15se35616 0.0 101964
07:00+16se396128 0.0 1020188
10:00+21sse69445 0.0 1020429
13:00+26sse7113599 0.0 10191117
16:00+27sse61138100 0.0 10181912
19:00+24sse375528 0.0 1017135
22:00+19se35573 0.0 101861
16 may, sun
sun1601:00+17se345846 0.0 101858
04:00+16se33615 0.0 101836
07:00+17se37637 0.0 1018170
10:00+22sse584855 0.0 1018434
13:00+26s5737100 0.0 10181166
16:00+27s4834100 0.0 10171837
19:00+25s1152100 0.0 101611
22:00+21e225588 0.0 101612
17 may, mon
mon1701:00+19ese224922 0.0 101614
04:00+18ese335469 0.0 101729
07:00+19e376423 0.0 1017145
10:00+24ese464966 0.0 1017377
13:00+28se573463 0.0 10171320
16:00+29sse46256 0.0 10163188
19:00+26ese234465 0.0 101628
22:00+21ese2247100 0.0 101712